SL-14 DEB, 45279

Orbit data source: Space-Track

SL-14 DEB, 45279 is space debris in LEO originally from a launch on Thu, 15 Aug 1991 UTC launched from the Plesetsk Missile And Space Complex (PKMTR). Debris objects in space refer to the collection of defunct objects orbiting the Earth. Examples of debris include non-operational satellites, rocket bodies, and fragments generated from explosions, collisions, or faulty payload assembly.

Loading next visibility...
Identifier
45279, 1991-056R
Orbit
LEO
Country
Flag of CISCIS
Related business
Manufacturer
Unknown
Mission
Spacecraft
Bus & Motor
Unknown
Mass
Unknown
Launch date (UTC)
1991-08-15 (35 years ago)
Launch vehicle
Unknown
Launch site
Plesetsk Missile And Space Complex (PKMTR)
Object type
Payload
Rocket body
Debris
Shape & HBR
Unknown shape, 0.1 m
Radar Cross Section
Medium (>0.1 m² and <1 m²)

Expand to show TLE details & history
Last TLE update: 21 hours ago

TLE from 21 hours ago
0 SL-14 DEB
1 45279U 91056R   26257.08266496  .00000753  00000-0  23596-2 0  9993
2 45279  82.5543 122.1364 0078486 177.4486 182.7044 13.02003790312204
Epoch: 2026-09-14T01:59Z
TLE epoch observation values (Epoch: 2026-09-14T01:59:02.252Z)
Latitude
-0.00005°
Longitude
99.30895°
Altitude
1,316.884 km
Speed
7.17 km/s
True Right ascension
08h 08m 32s
True Declination
0° 00' 00"
Sunlit
Object was in daylight at epoch
Visualization orbit readout
Latitude
Unknown
Longitude
Unknown
Altitude
Unknown
Speed
Unknown
Apparent Right ascension
Unknown
Apparent Declination
Unknown
Sunlit
N/A
Visualization observer readout
Local Sidereal Time
15:17:10
Azimuth
Unknown
Elevation
Unknown
Doppler factor
Unknown
Orbital elements
Apogee altitude
1,311.397 km
Perigee altitude
1,191.633 km
Semi-major axis
7,629.652 km
Eccentricity
0.00785
Inclination
82.5543°
RAAN
122.1364°
Arg. of periapsis
177.4486°
True anomaly
182.66238°
Mean anomaly
182.7044°
Eccentric anomaly
182.68335°
Mean motion
3.25676 °/min
Orbital period
110.54 mins
BSTAR
0.0023596
Loading maneuver chart data...
Computing Atmospheric mass density...
Loading historical data...
Loading historical data...
Loading historical data...
Loading historical data...
Loading historical data...
Loading historical data...
Loading historical data...

Documentation

Showing up to 5 results
|